Tracking 17267 objects as of 31-August-2015
HD Live streaming from Space Station

SL-3 DEB

Track SL-3 DEB now!
10-day predictions
SL-3 DEB is classified as:


NORAD ID: 14928
Int'l Code: 1983-075F
Perigee: 519.0 km
Apogee: 563.8 km
Inclination: 97.8 °
Period: 95.3 minutes
Semi major axis: 6912 km
RCS: 0.0341 m2 (small)
Launch date: July 24, 1983
Source: Commonwealth of Independent States (former USSR) (CIS)

Note: This is SATELLITE DEBRIS
Your satellite tracking list
Your tracking list is empty





NASA's NSSDC Master Catalog

Two Line Element Set (TLE):
1 14928U 83075F   15242.81436716  .00000979  00000-0  62761-4 0  9998
2 14928 097.8008 004.3143 0032417 299.8026 217.3682 15.10625230721224

Source of the keplerian elements: AFSPC

N2YO: 244